Location: Unspecified
(0.0000°N, 0.0000°E)
Time: 05:37:17
(UTC+00:00)

Vanguard 3 - Pass Details

Date: 12 April 2021
Orbit: 507 x 3262 km, 33.4° (Epoch: 17 May)

Event Time Altitude Azimuth Distance (km) Brightness Sun altitude
Rises 20:50:10 0° 221° (SW) 6,426 12.0 -41.7°
Reaches altitude 10° 20:56:15 10° 209° (SSW) 4,913 11.2 -43.2°
Enters shadow 21:01:22 19° 191° (S) 3,714 10.4 -44.5°
